Regional Weather Roundup
Issued by NWS Cleveland, OH

Home | Current Version | Previous Version | Text Only | Print | Product List | Glossary On
Versions: 1 2 3 4 5 6 7 8 9 10 11 12 13 14 15 16 17 18 19 20 21 22 23 24 25 26 27 28 29 30 31 32 33 34 35 36 37 38 39 40 41 42 43 44 45 46 47 48 49 50
000
ASUS41 KCLE 261012
RWRCLE
OHIO REGIONAL WEATHER ROUNDUP
NATIONAL WEATHER SERVICE WILMINGTON, OH
600 AM EDT THU MAY 26 2016

NOTE: "FAIR" INDICATES FEW OR NO CLOUDS BELOW 12,000 FEET WITH NO
SIGNIFICANT WEATHER AND/OR OBSTRUCTIONS TO VISIBILITY.

OHZ001>008-015>018-024>027-034-035-043-044-261100-
   NORTHWEST OHIO

CITY           SKY/WX    TMP DP  RH WIND       PRES   REMARKS
DEFIANCE       FAIR      69  62  78 S6        29.99S
FINDLAY        FAIR      67  59  75 SW8       30.01S
TOLEDO EXPRESS FAIR      67  62  84 S3        29.98F
TOLEDO EXEC    FAIR      67  61  81 S6        29.99F
LIMA           FAIR      67  61  81 S7        30.03S
$$

OHZ009>014-019>023-028>033-038-089-261100-
   NORTHEAST OHIO

CITY           SKY/WX    TMP DP  RH WIND       PRES   REMARKS
CLE-HOPKINS    MOCLDY    69  60  73 S9        30.05S
CLE-LAKEFRONT  FAIR      71  60  68 S8        30.02R
CUY CO. ARPT   NOT AVBL
LORAIN-ELYRIA  FAIR      65  59  81 S8        30.03F
ASHTABULA      FAIR      66  57  72 S7        30.06S
AKRON-CANTON   MOCLDY    67  59  75 S5        30.08R
WOOSTER        FAIR      63  59  87 S6        30.07S
MANSFIELD      FAIR      65  62  90 S9        30.05F
YOUNGSTOWN     CLOUDY    68  57  68 S7        30.08R
$$

OHZ042-051>053-060>062-070>072-077>081-261100-
  SOUTHWEST OHIO

CITY           SKY/WX    TMP DP  RH WIND       PRES   REMARKS
CINC-COVINGTON CLOUDY    66  63  90 SW6       30.07R
CINC-LUNKEN    MOCLDY    63  63 100 SW3       30.07R
HAMILTON       MOCLDY    66  63  90 CALM      30.07S
DAYTON         CLOUDY    67  62  84 SW12      30.06S
WRIGHT-PAT AFB FAIR      67  65  93 S2        30.05F
DAYTON GENERAL FAIR      65  60  84 S5        30.06S
WILMINGTON     MOCLDY    65  62  90 S5        30.07S
$$

OHZ036-037-039>041-045>050-054>059-063>069-073>076-082>088-261100-
  CENTRAL AND SOUTHEAST OHIO

CITY           SKY/WX    TMP DP  RH WIND       PRES   REMARKS
COLUMBUS       CLOUDY    67  62  84 S5        30.06S
OSU AIRPORT    NOT AVBL
BOLTON FIELD   FAIR      64  63  95 S7        30.06F
RICKENBACK AFB FAIR      65  62  88 S6        30.06S
NEWARK         FAIR      61  58  90 CALM      30.06S
MARION           N/A    N/A N/A N/A MISG      30.05R
LANCASTER      FAIR      66  61  84 S5        30.08R
ZANESVILLE     CLOUDY    69  61  75 S5        30.09R
NEW PHILLY     MOCLDY    68  59  73 SE5       30.09R
$$




USA.gov is the U.S. government's official web portal to all federal, state and local government web resources and services.